Time,TemperatureF,DewpointF,PressureIn,WindDirection,WindDirectionDegrees,WindSpeedMPH,WindSpeedGustMPH,Humidity,HourlyPrecipIn,Conditions,Clouds,dailyrainin,SoftwareType,DateUTC
2013-02-23 00:06:00,35.9,35.0,30.20,East,96,2.0,5.0,97,0.01,,,0.39,weatherlink.com 1.10,2013-02-23 02:06:00,
2013-02-23 00:22:00,35.9,35.0,30.20,East,100,2.0,5.0,97,0.01,,,0.39,weatherlink.com 1.10,2013-02-23 02:22:00,
2013-02-23 00:39:00,35.7,35.0,30.20,East,91,2.0,3.0,97,0.00,,,0.39,weatherlink.com 1.10,2013-02-23 02:39:00,
2013-02-23 00:55:00,35.7,35.0,30.21,East,91,2.0,3.0,97,0.00,,,0.39,weatherlink.com 1.10,2013-02-23 02:55:00,
2013-02-23 01:11:00,35.6,35.0,30.20,East,91,1.0,3.0,97,0.00,,,0.39,weatherlink.com 1.10,2013-02-23 03:11:00,
2013-02-23 01:28:00,35.6,35.0,30.20,East,91,0.0,3.0,97,0.00,,,0.39,weatherlink.com 1.10,2013-02-23 03:28:00,
2013-02-23 01:44:00,35.6,35.0,30.18,East,91,5.0,5.0,97,0.00,,,0.39,weatherlink.com 1.10,2013-02-23 03:44:00,
2013-02-23 02:00:00,35.5,35.0,30.18,East,82,0.0,2.0,97,0.00,,,0.39,weatherlink.com 1.10,2013-02-23 04:00:00,
2013-02-23 02:17:00,35.5,35.0,30.16,East,82,2.0,3.0,97,0.00,,,0.39,weatherlink.com 1.10,2013-02-23 04:17:00,
2013-02-23 02:34:00,35.6,35.0,30.16,East,82,0.0,2.0,97,0.00,,,0.39,weatherlink.com 1.10,2013-02-23 04:34:00,
2013-02-23 02:50:00,35.5,35.0,30.17,East,82,0.0,2.0,97,0.00,,,0.39,weatherlink.com 1.10,2013-02-23 04:50:00,
2013-02-23 03:06:00,35.5,35.0,30.17,East,82,1.0,2.0,97,0.00,,,0.00,weatherlink.com 1.10,2013-02-23 05:06:00,
2013-02-23 03:23:00,35.6,35.0,30.17,East,82,3.0,3.0,97,0.00,,,0.00,weatherlink.com 1.10,2013-02-23 05:23:00,
2013-02-23 03:40:00,35.4,35.0,30.17,ENE,71,2.0,2.0,97,0.00,,,0.00,weatherlink.com 1.10,2013-02-23 05:40:00,
2013-02-23 03:56:00,35.4,35.0,30.16,ENE,71,0.0,0.0,97,0.00,,,0.00,weatherlink.com 1.10,2013-02-23 05:56:00,
2013-02-23 04:12:00,35.5,35.0,30.16,ENE,71,0.0,2.0,97,0.00,,,0.00,weatherlink.com 1.10,2013-02-23 06:12:00,
2013-02-23 04:29:00,35.5,35.0,30.15,ESE,109,2.0,3.0,97,0.00,,,0.00,weatherlink.com 1.10,2013-02-23 06:29:00,
2013-02-23 04:45:00,35.3,35.0,30.13,ESE,109,0.0,3.0,97,0.00,,,0.00,weatherlink.com 1.10,2013-02-23 06:45:00,
2013-02-23 05:19:00,35.2,34.0,30.08,ENE,68,0.0,4.0,97,0.04,,,0.04,weatherlink.com 1.10,2013-02-23 07:19:00,
2013-02-23 05:35:00,35.4,35.0,30.10,NNW,341,2.0,5.0,98,0.04,,,0.04,weatherlink.com 1.10,2013-02-23 07:35:00,
2013-02-23 05:52:00,35.5,35.0,30.09,NNW,341,0.0,1.0,97,0.04,,,0.05,weatherlink.com 1.10,2013-02-23 07:52:00,
2013-02-23 06:08:00,35.5,35.0,30.08,NNW,341,1.0,2.0,97,0.04,,,0.06,weatherlink.com 1.10,2013-02-23 08:08:00,
2013-02-23 06:25:00,35.5,35.0,30.08,WSW,248,0.0,3.0,97,0.04,,,0.08,weatherlink.com 1.10,2013-02-23 08:25:00,
2013-02-23 06:41:00,35.6,35.0,30.09,WSW,248,2.0,3.0,97,0.07,,,0.11,weatherlink.com 1.10,2013-02-23 08:41:00,
2013-02-23 06:57:00,35.5,35.0,30.08,WSW,244,0.0,3.0,98,0.09,,,0.14,weatherlink.com 1.10,2013-02-23 08:57:00,
2013-02-23 07:13:00,35.5,35.0,30.06,WSW,244,0.0,2.0,98,0.08,,,0.15,weatherlink.com 1.10,2013-02-23 09:13:00,
2013-02-23 07:30:00,35.4,35.0,30.07,WSW,244,0.0,2.0,98,0.07,,,0.16,weatherlink.com 1.10,2013-02-23 09:30:00,
2013-02-23 07:46:00,35.5,35.0,30.06,WSW,244,1.0,2.0,98,0.04,,,0.17,weatherlink.com 1.10,2013-02-23 09:46:00,
2013-02-23 08:03:00,35.5,35.0,30.06,West,270,0.0,3.0,98,0.03,,,0.18,weatherlink.com 1.10,2013-02-23 10:03:00,
2013-02-23 08:20:00,35.6,35.0,30.05,WNW,287,2.0,3.0,98,0.03,,,0.19,weatherlink.com 1.10,2013-02-23 10:20:00,
2013-02-23 08:36:00,35.5,35.0,30.03,East,80,2.0,3.0,98,0.02,,,0.19,weatherlink.com 1.10,2013-02-23 10:36:00,
2013-02-23 08:52:00,35.4,35.0,30.02,ENE,74,2.0,4.0,98,0.02,,,0.19,weatherlink.com 1.10,2013-02-23 10:52:00,
2013-02-23 09:09:00,35.3,35.0,30.03,ENE,69,1.0,3.0,98,0.02,,,0.20,weatherlink.com 1.10,2013-02-23 11:09:00,
2013-02-23 09:25:00,35.4,35.0,30.04,ENE,69,0.0,2.0,98,0.01,,,0.20,weatherlink.com 1.10,2013-02-23 11:25:00,
2013-02-23 09:42:00,35.4,35.0,30.03,ENE,69,0.0,0.0,98,0.01,,,0.20,weatherlink.com 1.10,2013-02-23 11:42:00,
2013-02-23 09:58:00,35.5,35.0,30.03,ENE,69,0.0,1.0,98,0.01,,,0.21,weatherlink.com 1.10,2013-02-23 11:58:00,
2013-02-23 10:14:00,35.7,35.0,30.03,ENE,69,0.0,1.0,98,0.02,,,0.22,weatherlink.com 1.10,2013-02-23 12:14:00,
2013-02-23 10:31:00,35.7,35.0,30.02,ENE,69,0.0,1.0,98,0.03,,,0.23,weatherlink.com 1.10,2013-02-23 12:31:00,
2013-02-23 10:47:00,35.9,35.0,30.03,NW,323,1.0,4.0,98,0.02,,,0.23,weatherlink.com 1.10,2013-02-23 12:47:00,
2013-02-23 11:04:00,35.8,35.0,30.03,NW,321,3.0,5.0,98,0.02,,,0.24,weatherlink.com 1.10,2013-02-23 13:04:00,
2013-02-23 11:21:00,35.8,35.0,30.04,NW,321,3.0,3.0,98,0.01,,,0.24,weatherlink.com 1.10,2013-02-23 13:21:00,
2013-02-23 11:37:00,36.0,35.0,30.03,NW,323,0.0,5.0,98,0.01,,,0.24,weatherlink.com 1.10,2013-02-23 13:37:00,
2013-02-23 11:53:00,36.4,36.0,30.04,West,279,5.0,9.0,98,0.02,,,0.25,weatherlink.com 1.10,2013-02-23 13:53:00,
2013-02-23 12:09:00,36.4,36.0,30.03,WNW,302,3.0,5.0,98,0.01,,,0.25,weatherlink.com 1.10,2013-02-23 14:09:00,
2013-02-23 12:26:00,37.1,37.0,30.03,WNW,302,2.0,3.0,98,0.01,,,0.25,weatherlink.com 1.10,2013-02-23 14:26:00,
2013-02-23 12:42:00,37.5,37.0,30.04,WNW,292,2.0,6.0,97,0.00,,,0.25,weatherlink.com 1.10,2013-02-23 14:42:00,
2013-02-23 12:58:00,37.8,37.0,30.03,WNW,292,0.0,4.0,97,0.00,,,0.25,weatherlink.com 1.10,2013-02-23 14:58:00,
2013-02-23 13:15:00,38.3,38.0,30.02,NNW,342,2.0,4.0,97,0.00,,,0.25,weatherlink.com 1.10,2013-02-23 15:15:00,
2013-02-23 13:31:00,39.3,39.0,30.01,NNE,18,0.0,3.0,97,0.00,,,0.25,weatherlink.com 1.10,2013-02-23 15:31:00,
2013-02-23 13:48:00,39.8,39.0,30.02,NNE,15,0.0,3.0,96,0.00,,,0.25,weatherlink.com 1.10,2013-02-23 15:48:00,
2013-02-23 14:04:00,40.2,39.0,30.01,NNE,15,0.0,1.0,96,0.00,,,0.25,weatherlink.com 1.10,2013-02-23 16:04:00,
2013-02-23 14:21:00,40.5,39.0,30.02,NNE,15,1.0,3.0,96,0.00,,,0.25,weatherlink.com 1.10,2013-02-23 16:21:00,
2013-02-23 14:37:00,40.9,40.0,30.02,NNE,15,0.0,2.0,95,0.00,,,0.25,weatherlink.com 1.10,2013-02-23 16:37:00,
2013-02-23 14:53:00,41.4,40.0,30.01,NNE,15,0.0,0.0,95,0.00,,,0.25,weatherlink.com 1.10,2013-02-23 16:53:00,
2013-02-23 15:10:00,41.6,40.0,30.01,NNE,13,0.0,3.0,94,0.00,,,0.25,weatherlink.com 1.10,2013-02-23 17:10:00,
2013-02-23 15:26:00,41.8,40.0,30.00,NNE,13,0.0,3.0,94,0.00,,,0.25,weatherlink.com 1.10,2013-02-23 17:26:00,
2013-02-23 15:43:00,42.6,41.0,30.00,WNW,298,0.0,3.0,93,0.00,,,0.25,weatherlink.com 1.10,2013-02-23 17:43:00,
2013-02-23 15:59:00,43.2,41.0,29.98,WNW,299,1.0,4.0,92,0.00,,,0.25,weatherlink.com 1.10,2013-02-23 17:59:00,
2013-02-23 16:16:00,43.8,42.0,29.97,WNW,299,0.0,2.0,92,0.00,,,0.25,weatherlink.com 1.10,2013-02-23 18:16:00,
2013-02-23 16:32:00,44.0,42.0,29.96,WNW,299,1.0,3.0,91,0.00,,,0.25,weatherlink.com 1.10,2013-02-23 18:32:00,
2013-02-23 16:49:00,44.6,42.0,29.96,NNW,338,0.0,4.0,90,0.00,,,0.25,weatherlink.com 1.10,2013-02-23 18:49:00,
2013-02-23 17:05:00,45.6,43.0,29.96,NNW,338,0.0,2.0,90,0.00,,,0.25,weatherlink.com 1.10,2013-02-23 19:05:00,
2013-02-23 17:22:00,45.8,43.0,29.95,East,80,0.0,2.0,89,0.00,,,0.25,weatherlink.com 1.10,2013-02-23 19:22:00,
2013-02-23 17:38:00,46.2,43.0,29.95,West,259,2.0,4.0,88,0.00,,,0.25,weatherlink.com 1.10,2013-02-23 19:38:00,
2013-02-23 17:54:00,47.2,44.0,29.94,West,259,0.0,2.0,88,0.00,,,0.25,weatherlink.com 1.10,2013-02-23 19:54:00,
2013-02-23 18:10:00,47.4,44.0,29.94,WSW,254,2.0,4.0,87,0.00,,,0.25,weatherlink.com 1.10,2013-02-23 20:10:00,
2013-02-23 18:27:00,47.5,44.0,29.93,SE,129,1.0,3.0,87,0.00,,,0.25,weatherlink.com 1.10,2013-02-23 20:27:00,
2013-02-23 18:43:00,47.7,44.0,29.93,SSE,153,2.0,4.0,87,0.00,,,0.25,weatherlink.com 1.10,2013-02-23 20:43:00,
2013-02-23 18:59:00,47.7,44.0,29.93,SSE,151,0.0,3.0,87,0.00,,,0.25,weatherlink.com 1.10,2013-02-23 20:59:00,
2013-02-23 19:16:00,47.7,44.0,29.93,SE,128,2.0,3.0,87,0.00,,,0.25,weatherlink.com 1.10,2013-02-23 21:16:00,
2013-02-23 19:32:00,47.6,44.0,29.92,SE,128,0.0,3.0,87,0.00,,,0.25,weatherlink.com 1.10,2013-02-23 21:32:00,
2013-02-23 19:49:00,47.6,44.0,29.91,SE,128,0.0,0.0,87,0.00,,,0.25,weatherlink.com 1.10,2013-02-23 21:49:00,
2013-02-23 20:05:00,47.6,44.0,29.91,SE,128,0.0,0.0,87,0.00,,,0.25,weatherlink.com 1.10,2013-02-23 22:05:00,
2013-02-23 20:22:00,47.5,44.0,29.90,SE,128,0.0,0.0,87,0.00,,,0.25,weatherlink.com 1.10,2013-02-23 22:22:00,
2013-02-23 20:38:00,47.4,44.0,29.90,SE,128,0.0,2.0,88,0.00,,,0.25,weatherlink.com 1.10,2013-02-23 22:38:00,
2013-02-23 20:55:00,47.4,44.0,29.90,SE,128,0.0,0.0,88,0.00,,,0.25,weatherlink.com 1.10,2013-02-23 22:55:00,
2013-02-23 21:11:00,47.3,44.0,29.89,SE,128,0.0,0.0,88,0.00,,,0.25,weatherlink.com 1.10,2013-02-23 23:11:00,
2013-02-23 21:27:00,47.0,44.0,29.89,SE,128,0.0,2.0,89,0.00,,,0.25,weatherlink.com 1.10,2013-02-23 23:27:00,
2013-02-23 21:44:00,46.7,44.0,29.88,SE,128,0.0,0.0,90,0.00,,,0.25,weatherlink.com 1.10,2013-02-23 23:44:00,
2013-02-23 22:00:00,46.3,44.0,29.87,SE,128,0.0,2.0,91,0.00,,,0.25,weatherlink.com 1.10,2013-02-24 00:00:00,
2013-02-23 22:17:00,45.8,44.0,29.89,SE,128,2.0,2.0,92,0.00,,,0.25,weatherlink.com 1.10,2013-02-24 00:17:00,
2013-02-23 22:34:00,45.1,43.0,29.89,South,179,0.0,3.0,93,0.00,,,0.25,weatherlink.com 1.10,2013-02-24 00:34:00,
2013-02-23 22:50:00,44.8,43.0,29.88,South,179,0.0,2.0,94,0.00,,,0.25,weatherlink.com 1.10,2013-02-24 00:50:00,
2013-02-23 23:06:00,44.3,43.0,29.88,South,179,0.0,0.0,94,0.00,,,0.25,weatherlink.com 1.10,2013-02-24 01:06:00,
2013-02-23 23:23:00,44.3,43.0,29.88,South,180,0.0,3.0,95,0.00,,,0.25,weatherlink.com 1.10,2013-02-24 01:23:00,
2013-02-23 23:39:00,43.9,43.0,29.87,South,180,0.0,2.0,95,0.00,,,0.25,weatherlink.com 1.10,2013-02-24 01:39:00,
2013-02-23 23:55:00,43.8,43.0,29.88,South,180,0.0,0.0,96,0.00,,,0.25,weatherlink.com 1.10,2013-02-24 01:55:00,